Wheeling, WV

1:13 AM EDT on September 20, 2019 (GMT -0400)
Wheeling-Ohio County

Weather History for KHLG - August, 2019

Change the Weather History Date:

Monday, August 19, 2019

  Actual Average Record
Temperature  
Mean Temperature 76 °F 71 °F  
Max Temperature 87 °F 81 °F 95 °F (1945)
Min Temperature 65 °F 61 °F 44 °F (1944)
Degree Days  
Heating Degree Days 0 0  
Month to date heating degree days 0 0  
Since 1 June heating degree days 29 41  
Since 1 July heating degree days 0 3  
Cooling Degree Days 11    
Month to date cooling degree days 158  
Year to date cooling degree days 721  
Since 1 June cooling degree days 615  
Growing Degree Days 26 (Base 50)    
Moisture  
Dew Point 66 °F    
Average Humidity 72    
Maximum Humidity 93    
Minimum Humidity 51    
Precipitation  
Precipitation 0.01 in 0.12 in 1.57 in (1941)
Month to date precipitation 1.31 1.98  
Year to date precipitation 24.81 26.00  
Sea Level Pressure  
Sea Level Pressure 30.03 in    
Wind  
Wind Speed 4 mph (North)    
Max Wind Speed 26 mph    
Max Gust Speed 39 mph    
Visibility 10 miles    
Events Rain , Thunderstorm    
T = Trace of Precipitation, MM = Missing Value Source: NWS Daily Summary

Daily Weather History Graph

Daily Weather History Graph

Search for Another Location

Airport or City:

Astronomy

Aug. 19, 2019 Rise Set
Actual Time 6:37 AM EDT 8:14 PM EDT
Civil Twilight 6:08 AM EDT 8:42 PM EDT
Nautical Twilight 5:33 AM EDT 9:17 PM EDT
Astronomical Twilight 4:56 AM EDT 9:54 PM EDT
Moon 10:34 PM EDT (8/19) 10:17 AM EDT (8/19)
Length of Visible Light 14h 34m
Length of Day
13h 36m
Waning Gibbous, 85% of the Moon is Illuminated
Aug 19
Waning Gibbous
Aug 23
Last Quarter
Aug 30
New
Sep 5
First Quarter
Sep 14
Full

Hourly Weather History & Observations

Time (EDT) Temp. Heat Index Dew Point Humidity Pressure Visibility Wind Dir Wind Speed Gust Speed Precip Events Conditions
12:53 AM 75.0 °F - 66.9 °F 76% 29.96 in 10.0 mi South 5.8 mph - N/A   Clear
1:53 AM 73.9 °F - 68.0 °F 82% 29.95 in 10.0 mi South 6.9 mph - N/A   Scattered Clouds
2:53 AM 68.0 °F - 63.0 °F 84% 30.02 in 10.0 mi NNW 15.0 mph 28.8 mph 0.01 in Rain Light Rain
3:21 AM 68.0 °F - 64.0 °F 87% 30.02 in 10.0 mi North 8.1 mph - 0.00 in Rain , Thunderstorm Light Rain
3:53 AM 66.9 °F - 64.0 °F 90% 29.97 in 10.0 mi East 4.6 mph - 0.00 in Rain , Thunderstorm Light Rain
4:07 AM 66.9 °F - 64.0 °F 90% 29.99 in 10.0 mi NNE 3.5 mph - 0.00 in   Partly Cloudy
4:53 AM 66.0 °F - 64.0 °F 93% 29.98 in 10.0 mi SE 3.5 mph - 0.00 in   Partly Cloudy
5:53 AM 66.0 °F - 64.0 °F 93% 29.99 in 10.0 mi SSE 5.8 mph - N/A   Clear
6:53 AM 66.0 °F - 64.0 °F 93% 30.02 in 10.0 mi Calm Calm - N/A   Clear
7:53 AM 66.9 °F - 64.9 °F 93% 30.04 in 10.0 mi SW 3.5 mph - N/A   Clear
8:53 AM 72.0 °F - 66.0 °F 81% 30.05 in 10.0 mi SSW 4.6 mph - N/A   Clear
9:53 AM 75.0 °F - 66.9 °F 76% 30.06 in 10.0 mi Variable 3.5 mph - N/A   Clear
10:53 AM 78.1 °F - 66.9 °F 68% 30.07 in 10.0 mi Variable 4.6 mph - N/A   Clear
11:53 AM 80.1 °F 82.3 °F 66.9 °F 64% 30.07 in 10.0 mi Calm Calm - N/A   Clear
12:53 PM 82.0 °F 84.5 °F 66.9 °F 60% 30.07 in 10.0 mi Calm Calm - N/A   Clear
1:53 PM 84.9 °F 88.2 °F 68.0 °F 57% 30.06 in 9.0 mi Calm Calm - N/A   Clear
2:53 PM 86.0 °F 88.2 °F 66.0 °F 51% 30.05 in 10.0 mi Variable 6.9 mph - N/A   Clear
3:53 PM 86.0 °F 88.8 °F 66.9 °F 53% 30.04 in 10.0 mi NW 4.6 mph - N/A   Scattered Clouds
4:53 PM 84.0 °F 86.5 °F 66.9 °F 56% 30.04 in 10.0 mi WNW 4.6 mph - N/A   Overcast
5:53 PM 84.9 °F 88.8 °F 69.1 °F 59% 30.03 in 10.0 mi NW 5.8 mph - N/A   Mostly Cloudy
6:53 PM 84.0 °F 86.5 °F 66.9 °F 56% 30.02 in 10.0 mi NW 6.9 mph - N/A   Clear
7:53 PM 81.0 °F 83.8 °F 68.0 °F 65% 30.03 in 10.0 mi North 4.6 mph - N/A   Clear
8:53 PM 80.1 °F 82.1 °F 66.0 °F 62% 30.04 in 10.0 mi North 3.5 mph - N/A   Clear
9:53 PM 75.0 °F - 68.0 °F 79% 30.06 in 10.0 mi East 3.5 mph - N/A   Clear
10:53 PM 75.0 °F - 66.9 °F 76% 30.08 in 10.0 mi NE 3.5 mph - N/A   Clear
11:53 PM 73.0 °F - 66.9 °F 81% 30.09 in 10.0 mi East 3.5 mph - N/A   Clear